Hourly Data Report for September 08, 2017

All times are specified in Local Standard Time (LST). Add 1 hour to adjust for Daylight Saving Time where and when it is observed.

ST. STEPHEN
NEW BRUNSWICK

45°12'36.600" N
67°15'10.300" W
26.10 m
8104935
71607
WSS

Download Data

Hourly Data (September 2017)
Hourly Data Report for September 8, 2017
Temp Definition
°C
Dew Point Temp Definition
°C
Rel Hum Definition
%
Wind Dir Definition
10's deg

Wind Spd Definition
km/h
Visibility Definition
km
Stn Press Definition
kPa
Hmdx Definition


Wind Chill Definition


Weather Definition


TIME
00:00 12.7 11.9 95 24 2   100.70     LegendNANA
01:00 12.5 11.9 96 0 1   100.72     LegendNANA
02:00 12.4 11.8 96 26 1   100.72     LegendNANA
03:00 11.5 11.0 96   0   100.77     LegendNANA
04:00 13.0 12.5 97 24 3   100.79     LegendNANA
05:00 12.7 12.2 97 28 2   100.85     LegendNANA
06:00 10.9 10.4 97   0   100.92     LegendNANA
07:00 11.5 11.0 97   0   101.02     LegendNANA
08:00 13.2 12.8 97 24 4   101.12     LegendNANA
09:00 15.9 12.9 83 27 3   101.16     LegendNANA
10:00 18.7 12.7 68 24 7   101.19     LegendNANA
11:00 20.3 11.5 57 25 10   101.20     LegendNANA
12:00 22.2 11.3 50 19 10   101.18     LegendNANA
13:00 21.6 10.0 47 19 7   101.18     LegendNANA
14:00 22.8 11.2 48 19 13   101.19 25   LegendNANA
15:00 19.7 12.1 62 10 10   101.20     LegendNANA
16:00 20.6 10.7 53 18 17   101.21     LegendNANA
17:00 19.4 11.5 61 17 11   101.27     LegendNANA
18:00 19.2 9.7 54 19 12   101.28     LegendNANA
19:00 15.4 10.4 72 10 4   101.34     LegendNANA
20:00 13.4 10.5 83 13 2   101.46     LegendNANA
21:00 11.7 10.1 90 0 1   101.48     LegendNANA
22:00 10.7 9.6 93   0   101.49     LegendNANA
23:00 9.5 8.7 94 6 2   101.51     LegendNANA

Notes on Data Quality.

Legend

  • E = Estimated
  • M = Missing
  • NA = Not Available
  • ‡ = Partner data that is not subject to review by the National Climate Archives
Date modified: